Location: Asheville, NC
(35.6000°N, 82.5500°W)
Time: 18:41:16
(UTC-04:00)

Vanguard 3 - Pass Details

Date: 11 December 2017
Orbit: 508 x 3264 km, 33.3° (Epoch: 22 April)

Event Time Altitude Azimuth Distance (km) Brightness Sun altitude
Rises 16:16:03 0° 270° (W) 2,601 10.7 9.6°
Reaches altitude 10° 16:18:02 10° 267° (W) 1,765 10.0 9.3°
Maximum altitude 16:21:48 59° 186° (S) 709 7.4 8.7°
Drops below altitude 10° 16:27:04 10° 107° (ESE) 2,458 9.3 7.8°
Sets 16:30:17 0° 105° (ESE) 3,767 10.2 7.3°
